Other Surface Observations
Issued by NWS

Current Version | Previous Version | Text Only | Print | Product List | Glossary On
Versions: 1 2 3 4 5 6 7 8 9 10 11 12 13 14 15 16 17 18 19 20 21 22 23 24 25 26 27 28 29 30 31 32 33 34 35 36 37 38 39 40 41 42 43 44 45 46 47 48 49 50
000
SXUS52 KTAE 221318
OSOTAE
OSOTAE
North Florida/South Alabama/Southwest Georgia Weather Roundup
National Weather Service Tallahassee Florida
800 AM EST MON DEC 22 2014

Note: "fair" indicates few or no clouds below 12,000 feet with no
significant weather and/or obstructions to visibility.

!FLZ017-115-028-034-025-221400
...North Florida...

CITY           SKY/WX    TMP DP  RH WIND       PRES   REMARKS
TALLAHASSEE    FOG       57  54  89 N5        29.97S VSB 1/4
APALACHICOLA   LGT RAIN  63  60  90 NE5       29.93S VSB 1/4
PERRY          CLOUDY    62  62 100 NE3       29.98R FOG
CROSS CITY       N/A     66  65  96 SE5       29.97R
JACKSONVILLE   LGT RAIN  62  62 100 SE7       29.99F
$$

!FLZ112-006-005-002-011-221400
...Florida Panhandle...

CITY           SKY/WX    TMP DP  RH WIND       PRES   REMARKS
MARIANNA       LGT RAIN  52  52 100 NE7       29.98S
BONIFAY        NOT AVBL
PANAMA CITY NW CLOUDY    55  53  93 N6        29.96R
TYNDALL AFB    CLOUDY    57  57 100 N6        29.95R FOG
TYND DRONE APT FOG       57  57 100 MISG      29.93  VSB 7/8
DE FUNIAK SPR  RAIN      53  53 100 E7        29.92F
EGLIN AFB      TSTM      55  53  91 SE5       29.94R FOG
DESTIN         LGT RAIN  56  56 100 E9        29.92F
HURLBURT       LGT RAIN  56  52  87 E6        29.92R
CRESTVIEW      LGT RAIN  54  54 100 N5        29.94S
PENSACOLA      LGT RAIN  53  53 100 E5        29.91S
$$

!ALZ063-066-221400
...South Alabama...

CITY           SKY/WX    TMP DP  RH WIND       PRES   REMARKS
DOTHAN         LGT RAIN  49  49 100 NW18G24   29.98F FOG     WCI  42
OZARK CAIRNS   DRIZZLE   51  50  96 NE8       29.96R
FT RUCKER HELI CLOUDY    51  50  96 NE6       29.95F FOG
RUCKER HELI 3  FOG       50  50 100 NE6       29.98F VSB 5/16
RUCKER HELI 2  CLOUDY    50  50 100 NE7       29.97R FOG
FLORALA APT    FOG       53  52  96 NE5       29.96S VSB 1
ANDALUSIA      FOG       55  52  88 E7        29.95F VSB 1/4
TROY           CLOUDY    50  49  96 E5        29.98F FOG
EUFALA         CLOUDY    50  48  93 CALM      29.99R
MOBILE         LGT RAIN  54  54 100 E7        29.89F VSB 3/4
$$

!GAZ120>161-221400
...Southwest and South Central Georgia...

CITY           SKY/WX    TMP DP  RH WIND       PRES   REMARKS
THOMASVILLE    RAIN      52  52 100 NE6       29.99F VSB 3/4
BAINBRIDGE     CLOUDY    54  52  94 N6        29.99R
MOODY AFB      FOG       50  50 100 NE5       30.00S VSB 1/4
VALDOSTA       FOG       52  52 100 NE6       30.00S VSB 1/4
MOULTRIE       RAIN      50  50 100 CALM      30.00F
BLAKELY        RAIN      50  50 100 NE3       30.00S
ALBANY         CLOUDY    49  48  97 NE5       30.03R
TIFTON         DRZL/FOG  48  48 100 NE5       30.01R VSB 1
FITZGERALD     LGT RAIN  49  47  92 E3        30.03S
CORDELE        LGT RAIN  49  48  95 E3        30.03R
AMERICUS       CLOUDY    46  46 100 E6        30.02S FOG     WCI  43
HOMERVILLE     FOG       52  52 100 CALM      30.01F VSB 1/4
$$

!GMZ750-755-770-775-221400
...Coastal and Buoy Obs...

STATION/POSITION TIME  TEMP    WIND        PRES    VSBY  WAVE
                       AIR SEA DIR/SP/G                  HT/PER
                 (UTC) (F)     (DEG/KT/KT) (MB)    (MI)  (FT/S)
KEATON BEACH     1300   66     110/  6/  8 1014.8R
CEDAR KEY        1300   63     120/  8/  9 1015.5R
C TOWER          1300   66     130/ 14/ 14 1013.2S
APALACHICOLA BUO 1300   73 73  150/ 12/ 16 1012.5F         3/ 4
PANAMA CITY BUOY 1155   74 74  140/  8/ 10 1012.5R         3/ 5
MOBILE BUOY      1300   72 74  150/ 12/ 12 1010.9S         3/ 5
ORANGE BCH AL BU 1300   69 71  180/ 16/ 21 1010.5R         3/ 4
$$



USA.gov is the U.S. government's official web portal to all federal, state and local government web resources and services.